Weather History for KBBG - March, 2014

Change the Weather History Date:

Monday, March 10, 2014

  Actual Average (KHRO) Record (KHRO)
Temperature  
Mean Temperature 56 °F 47 °F  
Max Temperature 71 °F 58 °F 85 °F (1955)
Min Temperature 41 °F 36 °F 11 °F (1932)
Degree Days  
Heating Degree Days 9 18  
Month to date heating degree days 195  
Since 1 July heating degree days 3367  
Cooling Degree Days 0 0  
Month to date cooling degree days 0  
Year to date cooling degree days 0  
Growing Degree Days 6 (Base 50)    
Moisture  
Dew Point 36 °F    
Average Humidity 64    
Maximum Humidity 93    
Minimum Humidity 20    
Precipitation  
Precipitation 0.00 in 0.12 in 3.55 in (1973)
Month to date precipitation 1.11  
Year to date precipitation 6.31  
Snow  
Snow 0.00 in 0.10 in 3.80 in (1948)
Month to date snowfall 1.0  
Since 1 July snowfall 10.2  
Snow Depth -    
Sea Level Pressure  
Sea Level Pressure 29.97 in    
Wind  
Wind Speed 8 mph (SW)    
Max Wind Speed 15 mph    
Max Gust Speed 23 mph    
Visibility 10 miles    
Events      
T = Trace of Precipitation, MM = Missing Value Source: NWS Daily Summary

Daily Weather History Graph

Daily Weather History Graph

Search for Another Location

Airport or City:

Trip Planner

Search our weather history database for the weather conditions in past years. The results will help you decide how hot, cold, wet, or windy it might be!

Date:

Astronomy

Mar. 10, 2014 Rise Set
Actual Time 7:30 AM CDT 7:15 PM CDT
Civil Twilight 7:05 AM CDT 7:41 PM CDT
Nautical Twilight 6:35 AM CDT 8:11 PM CDT
Astronomical Twilight 6:05 AM CDT 8:41 PM CDT
Moon 2:06 PM CDT (3/10) 3:36 AM CDT (3/10)
Length of Visible Light 12h 36m
Length of Day
11h 44m
Waxing Gibbous, 70% of the Moon is Illuminated
Mar 10
Waxing Gibbous
Mar 16
Full
Mar 23
Last Quarter
Mar 30
New
Apr 7
First Quarter

Hourly Weather History & Observations

Time (CDT) Temp. Windchill Dew Point Humidity Pressure Visibility Wind Dir Wind Speed Gust Speed Precip Events Conditions
12:15 AM 42.8 °F 37.5 °F 39.2 °F 87% 30.11 in 10.0 mi SW 9.2 mph - N/A   Clear
12:35 AM 42.8 °F 38.6 °F 39.2 °F 87% 30.11 in 10.0 mi SW 6.9 mph - N/A   Clear
12:55 AM 41.0 °F 36.4 °F 39.2 °F 93% 30.10 in 10.0 mi WSW 6.9 mph - N/A   Clear
1:15 AM 41.0 °F 35.2 °F 39.2 °F 93% 30.10 in 10.0 mi SW 9.2 mph - N/A   Clear
1:35 AM 41.0 °F 35.2 °F 39.2 °F 93% 30.09 in 10.0 mi SW 9.2 mph - N/A   Clear
1:55 AM 41.0 °F 35.2 °F 39.2 °F 93% 30.09 in 10.0 mi SW 9.2 mph 16.1 mph N/A   Clear
2:15 AM 41.0 °F 35.2 °F 39.2 °F 93% 30.07 in 10.0 mi SW 9.2 mph - N/A   Clear
2:35 AM 42.8 °F 38.0 °F 39.2 °F 87% 30.07 in 10.0 mi SW 8.1 mph - N/A   Clear
2:55 AM 42.8 °F 37.5 °F 39.2 °F 87% 30.06 in 10.0 mi SW 9.2 mph - N/A   Clear
3:15 AM 42.8 °F 37.5 °F 39.2 °F 87% 30.05 in 10.0 mi SW 9.2 mph - N/A   Clear
3:35 AM 42.8 °F 37.0 °F 39.2 °F 87% 30.04 in 10.0 mi SW 10.4 mph 16.1 mph N/A   Clear
3:55 AM 42.8 °F 37.5 °F 39.2 °F 87% 30.04 in 10.0 mi SW 9.2 mph - N/A   Clear
4:15 AM 41.0 °F 36.4 °F 39.2 °F 93% 30.04 in 10.0 mi WSW 6.9 mph - N/A   Clear
4:35 AM 41.0 °F 35.8 °F 39.2 °F 93% 30.04 in 10.0 mi SW 8.1 mph - N/A   Clear
4:55 AM 41.0 °F 36.4 °F 39.2 °F 93% 30.04 in 10.0 mi WSW 6.9 mph - N/A   Clear
5:15 AM 41.0 °F 38.0 °F 39.2 °F 93% 30.04 in 10.0 mi SW 4.6 mph - N/A   Clear
5:35 AM 41.0 °F 39.0 °F 37.4 °F 87% 30.04 in 10.0 mi SW 3.5 mph - N/A   Clear
5:55 AM 41.0 °F 38.0 °F 39.2 °F 93% 30.03 in 10.0 mi SW 4.6 mph - N/A   Clear
6:15 AM 41.0 °F 35.2 °F 39.2 °F 93% 30.02 in 10.0 mi SW 9.2 mph - N/A   Clear
6:35 AM 41.0 °F 35.2 °F 39.2 °F 93% 30.02 in 10.0 mi SW 9.2 mph - N/A   Clear
6:50 AM 41.0 °F 36.4 °F 39.2 °F 93% 30.02 in 10.0 mi WSW 6.9 mph - N/A   Clear
7:45 AM 41.0 °F 37.1 °F 37.4 °F 87% 30.02 in 10.0 mi WSW 5.8 mph - N/A   Clear
8:45 AM 44.6 °F 40.2 °F 39.2 °F 81% 30.03 in 10.0 mi SW 8.1 mph - N/A   Clear
9:45 AM 50.0 °F - 39.2 °F 66% 30.01 in 10.0 mi SW 10.4 mph - N/A   Clear
10:47 AM 55.4 °F - 37.4 °F 51% 30.00 in 10.0 mi WSW 9.2 mph 17.3 mph N/A   Clear
11:46 AM 60.8 °F - 33.8 °F 36% 29.98 in 10.0 mi SW 11.5 mph 18.4 mph N/A   Clear
12:45 PM 64.4 °F - 33.8 °F 32% 29.97 in 10.0 mi WSW 11.5 mph 18.4 mph N/A   Clear
1:45 PM 68.0 °F - 32.0 °F 26% 29.94 in 10.0 mi West 9.2 mph 16.1 mph N/A   Clear
2:51 PM 71.6 °F - 28.4 °F 20% 29.89 in 10.0 mi West 15.0 mph 23.0 mph N/A   Clear
3:46 PM 71.6 °F - 28.4 °F 20% 29.87 in 10.0 mi WSW 10.4 mph 16.1 mph N/A   Clear
4:46 PM 71.6 °F - 28.4 °F 20% 29.84 in 10.0 mi West 10.4 mph 18.4 mph N/A   Clear
5:48 PM 71.6 °F - 28.4 °F 20% 29.83 in 10.0 mi West 12.7 mph - N/A   Partly Cloudy
6:46 PM 68.0 °F - 30.2 °F 24% 29.83 in 10.0 mi WSW 8.1 mph - N/A   Partly Cloudy
7:48 PM 64.4 °F - 32.0 °F 30% 29.84 in 10.0 mi SSW 5.8 mph - N/A   Partly Cloudy
8:46 PM 62.6 °F - 32.0 °F 32% 29.84 in 10.0 mi South 8.1 mph - N/A   Scattered Clouds
9:15 PM 59.0 °F - 33.8 °F 39% 29.84 in 10.0 mi South 3.5 mph - N/A   Scattered Clouds
9:35 PM 59.0 °F - 35.6 °F 42% 29.84 in 10.0 mi South 3.5 mph - N/A   Mostly Cloudy
9:55 PM 59.0 °F - 35.6 °F 42% 29.84 in 10.0 mi SSW 6.9 mph - N/A   Scattered Clouds
10:15 PM 59.0 °F - 35.6 °F 42% 29.84 in 10.0 mi SSW 6.9 mph - N/A   Partly Cloudy
10:35 PM 59.0 °F - 33.8 °F 39% 29.83 in 10.0 mi SSW 6.9 mph - N/A   Partly Cloudy
10:55 PM 59.0 °F - 33.8 °F 39% 29.82 in 10.0 mi SSW 8.1 mph - N/A   Scattered Clouds
11:15 PM 59.0 °F - 33.8 °F 39% 29.82 in 10.0 mi SW 8.1 mph - N/A   Scattered Clouds
11:35 PM 59.0 °F - 33.8 °F 39% 29.82 in 10.0 mi SW 8.1 mph - N/A   Partly Cloudy
11:55 PM 59.0 °F - 35.6 °F 42% 29.82 in 10.0 mi SW 8.1 mph - N/A   Partly Cloudy